Aeroporto :
LOGIN :

Iscrizione | Disclaimer

   EN    FR    IT 

 










Sommario :    VFR   VFR Marginale   IFR   IFR Intensivo   IFR Molto Intensivo
Visibilità : 
Base nubi : 
>= 8 km
>= 3000ft
5 / 8 km
1000 / 3000 ft
1500m / 5 km
500 / 1000 ft
800 / 1500m
200 / 500 ft
< 800m
< 200 ft
Simboli :   Temporali  Nebbia  Neve Forte  Precipitazioni Forti  Vento > 20 kt
SIGMETs :   Varie  Temporali  Ghiacco  Turbolenza  Onda orograficha  Ceneri Vulcaniche






- Altitudine del aeroporto : 398 ft
- Codice IATA : JOE


EFJO - Joensuu

ULTIMO METAR :
  • 240250Z AUTO 29008KT 9999 SCT029 OVC040 00/M02 Q0998

METARs OBSOLETI :
  • 240220Z AUTO 29007KT 9999 OVC029 00/M02 Q0998
  • 240150Z AUTO 28008KT 9999 OVC023 00/M02 Q0997
  • 240120Z AUTO 30006KT 9999 FEW008 OVC022 00/M02 Q0997
  • 240050Z AUTO 29007KT 260V320 9999 -SHSN SCT011 OVC024 00/M01 Q0997
  • 240020Z AUTO 29006KT 9999 OVC026 00/M01 Q0997

Previsioni scadute.



MetMap, La meteo Aeronautica in un colpo d'occhio ! - Copyright ORBIFLY Dicembre 2007 - Disclaimer

ORBIFLY MET'MAP TEAM :

Programmazione e sviluppo : Alexandra Zaïnal
Concezione : Baudouin d'Aumeries
Aiuto per la programmazione : Marc-Olivier Méhu
Supporto tecnico e logistico : Manuel Goepfert
Aiuto per la traduzione : Arnaldo La Scala

Contatto : metmap@orbifly.com




FONTI E CREDITI :

   NOAA